Location: Presov
(49.0000°N, 21.2500°E)
Time: 02:08:46
(UTC+02:00)

ISS - Pass Details

Date: 26 March 2019
Orbit: 408 x 410 km, 51.6° (Epoch: 21 April)

Event Time Altitude Azimuth Distance (km) Brightness Sun altitude
Rises 19:23:49 0° 257° (WSW) 2,332 1.0 -14.8°
Reaches altitude 10° 19:25:54 10° 260° (W) 1,472 -0.1 -15.1°
Maximum altitude 19:29:12 70° 345° (NNW) 439 -3.6 -15.6°
Enters shadow 19:30:49 27° 63° (ENE) 817 -2.7 -15.8°
